DW8306 Weather Reports


time (UTC)temp
C
wind
direction
speed
KPH
gust
KPH
rain 1hr
cm
rain 24hr
cm
rain mn
cm
humidity
%
barometer
mb
20260902123043 25 93 0.0 6.4 0.00 0.00 0.00 93 1015.2
20260902121538 24 90 0.0 3.2 0.00 0.00 0.00 93 1015.2
20260902120036 24 156 0.0 1.6 0.00 0.00 0.00 93 1015.2
20260902114537 24 119 0.0 1.6 0.00 0.00 0.00 92 1015.0
20260902113033 24 73 0.0 1.6 0.00 0.00 0.00 92 1015.0
20260902111540 24 106 0.0 6.4 0.00 0.00 0.00 92 1014.8
20260902110037 24 81 0.0 8.0 0.00 0.00 0.00 92 1014.7
20260902104539 24 69 1.6 8.0 0.00 0.00 0.00 91 1014.7
20260902103030 24 68 1.6 8.0 0.00 0.00 0.00 91 1014.5
20260902101538 25 80 3.2 8.0 0.00 0.00 0.00 91 1014.6
20260902100033 25 58 0.0 3.2 0.00 0.00 0.00 91 1014.5
20260902094524 25 126 0.0 6.4 0.00 0.00 0.00 91 1014.4
20260902093025 25 92 0.0 6.4 0.00 0.00 0.00 91 1014.4
20260902091539 25 81 0.0 6.4 0.00 0.00 0.00 91 1014.4
20260902090023 25 100 0.0 6.4 0.00 0.00 0.00 90 1014.3
20260902084522 25 133 0.0 3.2 0.00 0.00 0.00 90 1014.4
20260902083022 24 77 0.0 6.4 0.00 0.00 0.00 89 1014.5
20260902081522 25 83 0.0 0.0 0.00 0.00 0.00 89 1014.5
20260902080019 25 83 0.0 1.6 0.00 0.00 0.00 88 1014.4
20260902074516 25 109 0.0 0.0 0.00 0.00 0.00 88 1014.3
20260902073017 25 109 0.0 0.0 0.00 0.00 0.00 87 1014.5
20260902071519 25 109 0.0 1.6 0.00 0.00 0.00 87 1014.6
20260902070016 25 109 0.0 1.6 0.00 0.00 0.00 86 1014.7
20260902064509 25 66 0.0 1.6 0.00 0.00 0.00 87 1014.7
20260902063013 25 66 0.0 1.6 0.00 0.00 0.00 86 1014.8
20260902061506 25 66 0.0 1.6 0.00 0.00 0.00 85 1014.9
20260902060014 25 50 0.0 0.0 0.00 0.00 0.00 85 1014.9
20260902054510 25 326 0.0 0.0 0.00 0.00 0.00 84 1014.9
20260902053002 25 326 0.0 0.0 0.00 0.00 0.00 83 1014.8
20260902051559 26 326 0.0 1.6 0.00 0.00 0.00 82 1014.8
20260902050105 26 324 0.0 0.0 0.00 0.00 0.00 81 1014.8
20260902044556 26 324 0.0 1.6 0.00 0.00 0.00 80 1014.9
20260902043055 26 324 0.0 0.0 0.00 0.00 0.00 80 1015.1
20260902041605 27 64 0.0 3.2 0.00 0.00 0.00 79 1014.9
20260902040054 27 95 0.0 3.2 0.00 0.00 0.00 79 1014.7
20260902034555 27 25 0.0 3.2 0.00 0.00 0.00 79 1014.5
20260902033106 27 67 0.0 3.2 0.00 0.00 0.00 78 1014.4
20260902031552 27 251 1.6 11.3 0.00 0.00 0.00 79 1014.5
20260902030053 27 39 0.0 1.6 0.00 0.00 0.00 79 1014.4
20260902024551 27 339 0.0 3.2 0.00 0.00 0.00 78 1014.1
20260902023050 27 304 0.0 6.4 0.00 0.00 0.00 78 1014.1
20260902021607 27 291 0.0 1.6 0.00 0.00 0.00 78 1013.9
20260902020050 28 291 0.0 0.0 0.00 0.00 0.00 77 1013.6
20260902014545 28 291 0.0 0.0 0.00 0.00 0.00 76 1013.4
20260902013044 28 291 0.0 1.6 0.00 0.00 0.00 75 1013.3
20260902011545 29 291 0.0 1.6 0.00 0.00 0.00 75 1013.3
20260902010056 30 228 0.0 1.6 0.00 0.00 0.00 73 1013.3
20260902004546 30 280 0.0 3.2 0.00 0.00 0.00 72 1013.2
20260902003042 31 155 0.0 3.2 0.00 0.00 0.00 70 1013.2
20260902001541 32 328 0.0 4.8 0.00 0.00 0.00 67 1013.2
20260902000052 32 231 0.0 3.2 0.00 0.00 0.00 65 1013.1
20260901234604 33 91 0.0 3.2 0.00 0.00 0.00 63 1012.9
20260901233040 35 224 0.0 3.2 0.00 0.00 0.00 58 1013.0
20260901231548 35 100 0.0 11.3 0.00 0.00 0.00 56 1012.8
20260901230101 35 137 0.0 6.4 0.00 0.00 0.00 56 1012.7
20260901224539 35 83 1.6 12.9 0.00 0.00 0.00 56 1012.7
20260901223101 35 268 0.0 11.3 0.00 0.00 0.00 56 1012.7
20260901221539 36 71 1.6 9.7 0.00 0.00 0.00 54 1012.8
20260901220037 36 66 1.6 9.7 0.00 0.00 0.00 53 1012.7
20260901214534 35 133 4.8 14.5 0.00 0.00 0.00 55 1012.7
20260901213032 35 189 0.0 14.5 0.00 0.00 0.00 55 1012.9
20260901211541 36 36 6.4 16.1 0.00 0.00 0.00 52 1013.0
20260901210028 36 88 3.2 9.7 0.00 0.00 0.00 54 1013.3
20260901204539 36 117 1.6 17.7 0.00 0.00 0.00 54 1013.6
20260901203027 36 75 6.4 19.3 0.00 0.00 0.00 51 1013.8
20260901201523 36 195 0.0 19.3 0.00 0.00 0.00 56 1014.0
20260901200035 36 218 0.0 0.0 0.00 0.00 0.00 52 1014.1
20260901194523 36 100 0.0 0.0 0.00 0.00 0.00 55 1014.4
20260901193020 36 97 0.0 0.0 0.00 0.00 0.00 52 1014.3
20260901191524 35 62 0.0 0.0 0.00 0.00 0.00 55 1014.3
20260901190020 35 106 0.0 0.0 0.00 0.00 0.00 55 1014.5
20260901184516 35 106 0.0 0.0 0.00 0.00 0.00 54 1014.8
20260901183013 35 349 0.0 0.0 0.00 0.00 0.00 53 1015.0
20260901181504 35 147 0.0 0.0 0.00 0.00 0.00 58 1015.1
20260901180057 34 26 0.0 0.0 0.00 0.00 0.00 58 1015.3
20260901174558 33 243 0.0 0.0 0.00 0.00 0.00 58 1015.6
20260901173106 33 135 0.0 0.0 0.00 0.00 0.00 60 1015.7
20260901171552 33 83 0.0 0.0 0.00 0.00 0.00 60 1016.1
20260901170048 33 52 0.0 0.0 0.00 0.00 0.00 62 1016.3
20260901164558 33 4 0.0 0.0 0.00 0.00 0.00 60 1016.5
20260901163045 32 121 0.0 0.0 0.00 0.00 0.00 62 1016.6
20260901161543 32 226 0.0 0.0 0.00 0.00 0.00 63 1016.6
20260901160043 31 97 0.0 0.0 0.00 0.00 0.00 66 1016.6
20260901154541 31 222 0.0 0.0 0.00 0.00 0.00 68 1016.6
20260901153040 31 102 0.0 0.0 0.00 0.00 0.00 69 1016.7
20260901151533 30 298 0.0 0.0 0.00 0.00 0.00 72 1016.7
20260901150033 30 103 0.0 0.0 0.00 0.00 0.00 74 1016.9
20260901144536 30 343 0.0 0.0 0.00 0.00 0.00 74 1017.0
20260901143026 29 222 0.0 0.0 0.00 0.00 0.00 77 1016.9
20260901141522 28 33 0.0 0.0 0.00 0.00 0.00 78 1016.7
20260901140019 28 88 0.0 0.0 0.00 0.00 0.00 80 1016.7
20260901134516 27 56 0.0 0.0 0.00 0.00 0.00 82 1016.8
20260901133016 26 74 0.0 0.0 0.00 0.00 0.00 85 1016.6
20260901131510 25 73 0.0 0.0 0.00 0.00 0.00 87 1016.4
20260901130007 24 343 0.0 0.0 0.00 0.00 0.00 89 1016.3
20260901124507 24 343 0.0 0.0 0.00 0.00 0.00 90 1016.3